Dewpoint
55 55 55 55 55 53 52 52 52 52 51 49 47 46 46 46 45 46 45 44 44 44 44 44 43 44 43 44 42 42 41 42 42 41 41 40 41 40 40 40 39 40 40 40 40 40 40 39 39 40 40 40 40 40 40 40 41 41 41 41 40 40 40 39 37 37 38 39 38 37 38 39 37 37 36 37 38 38 40 40 41 41 40 40 40
54 54 54 53 53 52 52 52 51 50 47 46 45 45 44 45 45 45 44 44 44 43 43 44 43 43 42 41 41 41 41 41 41 41 40 40 40 40 40 39 39 39 39 38 39 40 40 38 38 39 40 39 39 38 39 39 39 39 39 40 39 39 40 39 38 37 36 37 37 37 37 37 36 36 36 37 37 38 37 38 40 40 40 40 39
54 53 53 52 52 52 51 50 49 47 45 44 44 44 44 45 45 44 43 43 44 43 43 43 42 42 41 41 40 40 40 40 41 40 40 40 39 40 40 39 39 39 39 39 38 38 38 39 38 38 39 37 38 38 38 38 38 39 39 39 39 39 39 40 38 37 36 36 37 36 36 37 36 34 34 36 38 38 36 37 37 39 40 40 39
53 52 52 52 51 51 50 48 46 45 44 43 43 43 43 44 44 43 43 43 42 43 42 42 42 41 41 40 40 40 40 40 40 40 40 40 39 39 40 40 39 39 39 39 39 39 38 38 38 38 39 37 37 36 36 36 37 38 38 38 39 38 39 39 39 38 37 36 36 35 36 36 35 33 34 35 35 36 37 38 38 39 39 39 38
52 51 51 51 51 50 48 46 44 43 43 42 42 43 43 43 44 42 42 42 42 42 43 42 41 40 41 40 40 40 40 40 40 40 40 40 40 40 40 40 40 40 41 42 43 40 41 39 39 39 38 39 39 37 36 36 36 37 36 36 37 38 38 38 38 38 36 35 35 35 35 34 34 35 34 32 33 34 36 37 37 38 39 39 39
51 51 51 50 49 48 46 44 42 42 41 41 42 42 43 43 42 42 41 41 41 41 41 41 41 40 40 40 40 40 40 40 39 40 40 40 40 40 40 40 40 39 39 40 39 40 40 39 40 40 39 39 39 38 37 37 37 37 37 36 36 37 38 37 37 36 35 34 34 33 34 33 33 34 32 33 34 34 35 36 38 39 38 39 38
51 50 50 49 48 46 43 42 41 41 41 41 41 41 41 42 41 41 42 41 40 41 41 41 41 40 40 40 40 40 40 39 39 39 39 39 39 39 39 39 39 39 39 38 38 38 38 37 40 40 40 40 39 38 37 37 37 37 37 37 37 37 37 36 35 35 34 33 33 33 32 33 33 31 31 33 34 34 35 36 37 38 39 37 37
50 50 49 48 47 44 42 42 41 41 41 41 40 41 41 41 41 42 41 40 40 40 40 40 41 40 40 40 40 41 39 39 39 39 39 39 39 38 39 39 38 37 37 37 37 37 37 37 39 40 41 41 40 39 38 38 38 37 37 37 38 37 36 35 34 33 33 33 32 31 31 31 31 32 33 33 33 34 35 36 37 37 37 37 37
49 49 48 47 46 43 42 42 41 41 40 40 40 40 40 41 41 41 41 41 42 40 40 40 39 39 40 40 40 40 39 39 39 39 39 38 38 38 38 37 36 35 35 35 35 35 35 36 39 41 42 43 41 40 39 39 39 37 37 37 39 37 36 34 33 32 32 32 31 32 31 30 30 31 31 31 32 33 35 37 37 37 37 36 36
49 48 48 46 45 43 42 42 40 40 40 40 40 40 40 40 40 40 39 40 40 40 39 39 39 39 39 39 39 40 40 40 42 41 41 39 38 38 38 38 36 36 36 35 36 36 36 36 40 41 42 42 40 38 37 38 38 38 38 38 38 37 35 34 32 32 32 32 31 31 30 29 29 31 32 33 34 35 35 36 37 37 37 36 36
49 48 47 45 43 42 41 40 40 39 39 39 39 39 39 40 39 39 39 38 39 40 39 38 38 38 38 38 38 39 40 41 40 38 39 40 39 38 37 37 36 35 35 35 36 38 37 37 37 38 40 41 40 37 37 37 36 36 37 37 37 37 35 34 33 33 32 32 31 30 30 30 30 31 31 32 33 34 36 37 37 37 36 35 34
48 47 46 44 43 42 41 40 39 39 39 39 39 39 39 38 38 38 38 38 39 38 38 38 38 38 38 38 38 39 39 42 38 38 38 38 40 39 37 37 37 36 35 35 36 37 37 38 38 37 38 40 40 36 38 37 36 36 35 35 35 36 35 35 34 33 34 32 31 31 30 30 30 31 31 32 33 35 36 37 37 37 36 36 35
47 46 45 44 42 41 40 39 39 38 39 39 39 38 37 37 37 37 37 38 37 37 37 37 37 37 37 37 38 39 39 39 38 38 38 38 38 38 37 37 37 36 36 36 36 36 37 39 39 37 36 39 39 35 35 35 37 35 36 35 35 36 33 33 34 35 35 33 32 31 31 31 31 31 33 34 35 36 36 36 36 37 37 36 35
46 46 45 43 42 41 40 39 38 39 39 38 38 39 39 36 37 37 38 37 36 36 36 36 36 37 37 38 38 38 38 40 38 38 38 37 37 38 37 38 38 38 38 38 38 37 37 38 38 36 36 36 37 36 36 35 33 33 33 32 32 34 33 33 33 34 35 34 33 32 33 33 32 33 34 35 35 35 37 38 38 38 37 36 37
46 45 44 42 42 41 39 39 38 38 38 38 38 38 38 36 36 37 36 35 35 35 35 36 37 38 38 38 38 38 39 39 38 38 38 38 38 38 39 39 39 39 38 38 37 37 36 38 38 35 35 34 38 37 37 35 32 32 32 31 32 31 33 33 33 34 35 34 33 34 34 34 34 34 34 35 36 36 38 39 38 38 38 38 37
45 44 43 42 41 40 39 39 38 38 38 38 38 38 36 37 36 36 36 35 35 35 36 37 37 36 37 38 38 37 38 38 38 38 38 38 39 40 39 38 38 37 37 37 36 36 36 39 38 35 34 33 37 35 36 36 31 31 31 31 31 32 32 34 33 34 35 34 34 34 34 35 33 36 36 35 35 37 38 38 38 37 37 36 34
44 43 43 42 41 40 40 39 38 38 38 38 37 37 38 38 37 37 35 34 34 35 35 36 36 36 37 37 36 36 37 38 38 37 37 38 38 38 38 38 37 36 35 36 35 35 37 41 37 35 34 33 37 34 35 35 30 30 30 30 31 30 30 30 33 33 33 33 33 32 33 32 32 33 33 34 34 38 38 37 36 38 37 35 35
43 43 43 43 43 42 41 39 38 38 38 37 37 38 39 38 36 37 34 34 34 34 35 35 35 36 35 35 36 36 36 38 38 37 38 37 39 37 36 35 34 35 35 35 35 33 37 39 40 36 35 35 35 34 34 35 30 30 30 30 29 29 28 30 32 32 32 32 32 32 32 31 32 32 33 33 34 36 37 36 37 39 37 37 35
43 44 44 44 43 41 41 40 38 39 38 37 38 38 37 37 36 36 34 34 34 35 36 34 34 34 35 36 40 36 36 38 37 37 37 37 38 36 35 34 33 33 34 34 34 33 33 36 39 38 38 37 34 34 34 35 31 30 30 30 29 28 29 31 32 32 32 31 31 31 31 32 32 32 33 33 34 36 37 37 38 38 37 37 37
44 43 44 44 43 43 43 41 40 39 38 38 37 38 38 38 35 34 34 34 34 35 35 34 34 36 37 37 37 35 36 36 38 36 37 37 37 37 35 33 34 32 34 36 33 33 33 33 37 35 35 35 34 34 33 34 34 31 31 30 30 28 30 32 33 32 31 30 31 31 32 31 31 31 31 32 33 35 35 38 39 38 38 37 37
44 45 44 43 43 43 42 41 41 40 40 40 39 39 39 38 36 35 34 35 34 34 34 35 34 33 33 33 34 34 35 35 37 36 36 36 36 36 33 33 33 33 33 34 31 31 32 32 33 36 35 35 34 34 33 33 34 34 32 30 30 32 33 32 31 32 30 31 30 30 29 28 29 28 29 29 30 32 33 35 38 40 39 38 37
45 44 43 43 43 43 42 42 42 41 40 40 39 39 38 38 36 35 35 34 34 34 34 34 33 33 33 34 35 36 38 37 36 36 36 36 36 36 35 35 35 34 33 32 32 32 32 32 34 35 35 35 34 34 33 33 33 33 33 32 32 32 33 32 31 29 28 28 27 26 26 26 25 26 27 28 28 31 32 33 36 38 40 41 39
44 44 43 43 43 42 42 42 42 41 40 40 39 38 39 37 36 35 34 34 34 34 33 33 33 33 33 33 33 34 36 38 37 37 36 36 36 36 36 36 36 38 33 32 31 32 32 33 35 37 35 35 34 34 33 33 33 32 32 31 32 31 32 29 29 28 28 27 28 27 26 25 25 25 26 26 27 30 30 32 34 35 37 40 41
44 43 43 43 43 42 42 42 41 41 40 39 38 36 36 35 35 35 34 34 33 33 33 33 32 32 32 32 33 33 34 34 37 37 36 35 35 35 35 36 37 36 36 32 33 34 33 33 35 35 35 35 33 33 33 33 32 32 32 32 31 31 30 29 28 28 29 27 27 26 25 25 25 25 25 27 28 30 31 32 34 34 36 38 38
44 43 43 42 42 42 42 41 41 41 41 40 38 36 36 35 34 34 34 34 33 33 33 33 32 32 32 32 32 32 32 32 34 36 35 35 35 35 35 34 34 35 36 35 37 36 35 35 35 35 35 33 33 32 32 33 32 32 32 32 31 28 29 28 28 28 27 27 26 27 25 25 25 26 28 29 31 30 29 31 33 34 35 36 38
44 43 42 42 42 41 41 41 41 41 41 39 38 37 35 35 34 34 34 34 34 34 34 33 32 32 31 31 32 32 32 31 31 33 38 36 35 35 35 35 36 36 37 36 34 34 34 35 35 34 34 34 34 33 32 33 32 32 32 32 28 28 28 28 28 27 27 26 27 27 26 26 25 27 29 29 27 26 27 29 30 31 33 34 34
43 43 43 41 41 41 40 40 40 40 39 39 38 38 36 34 34 34 34 33 34 34 34 33 32 32 31 31 32 33 32 31 30 30 30 31 33 36 35 35 36 35 37 37 35 35 36 36 35 32 34 32 32 32 31 33 31 30 29 28 29 28 29 30 29 28 28 27 27 27 26 26 27 27 26 26 26 26 26 28 28 29 31 33 33
43 42 41 40 40 40 40 38 39 39 38 38 37 37 37 35 33 33 33 33 34 34 34 33 32 32 31 31 32 33 31 30 29 29 29 31 32 30 34 35 31 31 31 32 33 37 35 33 32 32 32 31 31 29 29 30 30 30 29 28 28 28 30 29 29 27 27 27 27 28 27 28 26 25 26 26 25 26 26 27 27 29 30 32 32
43 41 40 40 40 39 40 39 39 39 38 38 37 37 36 35 34 34 35 36 35 35 34 33 33 32 31 32 32 32 31 30 30 31 31 32 30 30 30 30 30 31 35 34 38 34 32 32 32 31 29 28 27 28 28 28 29 29 29 29 29 27 28 27 27 28 28 28 28 28 28 27 26 26 26 26 27 26 26 27 27 28 29 30 30
41 41 41 39 39 39 39 39 39 39 38 37 36 35 33 36 35 34 35 37 36 35 35 34 34 33 32 33 33 32 31 31 31 31 31 32 33 32 33 33 33 34 35 34 34 30 30 26 29 27 28 27 27 25 26 27 27 27 27 29 29 28 28 28 27 27 28 28 28 28 28 28 27 26 26 26 27 27 26 27 26 27 27 27 27
40 40 40 39 40 39 38 38 38 38 38 36 35 35 34 34 34 35 36 37 36 36 35 35 35 34 34 33 34 34 32 31 31 32 32 33 33 33 34 34 34 34 34 30 29 27 27 24 26 26 27 27 26 26 27 26 25 26 27 28 28 28 27 27 28 26 26 28 28 28 28 28 27 26 27 27 27 27 26 27 27 27 25 26 26
40 39 41 40 38 38 38 38 38 38 37 36 35 34 34 34 33 33 35 36 36 36 36 36 35 35 34 34 35 34 32 32 33 32 32 33 33 34 34 34 34 34 34 31 27 25 26 26 26 27 27 26 27 25 26 27 26 26 27 27 27 27 27 26 27 27 27 27 27 26 27 27 27 27 26 26 26 26 26 27 26 26 26 26 27
41 39 40 39 38 37 37 37 37 37 37 35 34 34 34 33 33 32 31 34 35 35 35 36 36 36 35 35 35 33 33 32 33 33 33 33 33 34 34 34 34 34 33 29 26 25 26 28 28 27 27 25 26 27 27 28 27 27 27 27 26 28 27 28 26 27 26 27 27 27 27 27 27 26 25 26 27 26 27 27 26 26 25 26 27
41 41 41 40 38 37 37 37 37 37 37 36 35 34 34 35 34 33 31 30 31 32 33 34 35 35 35 35 34 32 32 32 33 33 32 33 33 34 32 33 34 34 32 30 28 28 27 28 28 28 27 27 27 27 27 27 26 26 26 27 27 28 28 28 27 27 26 26 27 26 27 27 26 27 26 26 27 27 27 26 27 26 26 26 26
41 38 36 37 38 37 37 37 36 36 36 36 35 34 35 34 33 32 32 31 32 31 31 31 33 35 35 33 33 31 32 33 33 33 33 33 33 33 31 30 27 28 29 30 29 29 28 28 29 28 28 27 27 27 26 28 27 27 27 27 27 28 28 28 27 28 27 28 27 27 27 27 28 25 24 25 25 25 25 27 26 26 26 26 26
42 41 41 40 39 37 36 36 36 35 35 35 35 34 33 32 32 31 31 31 31 30 29 30 30 33 32 31 32 33 32 33 33 33 32 32 33 30 25 23 25 27 27 28 29 29 29 30 30 29 29 28 28 27 27 28 28 28 28 27 26 27 27 27 27 27 29 29 26 26 27 28 27 26 26 27 27 26 26 26 26 26 26 26 26
40 40 40 40 39 39 39 38 35 35 33 33 33 32 32 31 31 30 30 30 30 30 29 28 28 29 31 31 33 33 33 33 33 33 33 33 33 30 27 26 26 27 27 28 28 28 28 29 29 29 29 29 28 28 28 28 28 28 29 28 28 28 28 28 27 26 28 26 28 29 28 28 28 27 25 25 25 26 26 26 26 26 26 25 24
39 38 38 38 38 39 39 38 36 31 32 32 32 32 31 30 30 30 29 29 29 29 28 27 29 28 27 27 36 32 33 34 34 34 34 34 29 30 29 29 28 28 27 28 28 29 29 29 30 29 29 30 29 29 28 27 27 28 27 28 29 27 28 29 27 28 27 25 25 26 25 25 25 24 24 24 25 25 25 25 25 25 26 26 25
41 36 35 34 35 35 36 35 35 35 32 31 30 31 30 30 29 29 29 29 29 28 27 27 28 27 27 28 33 33 31 29 29 27 28 29 30 30 30 30 29 29 29 28 29 29 29 29 29 30 30 29 29 29 28 28 28 28 28 27 28 29 27 27 28 28 26 26 26 26 25 25 25 24 24 24 25 25 25 26 25 25 25 25 25
39 38 35 34 36 36 32 31 31 31 30 30 29 30 30 29 29 29 28 28 28 28 26 26 27 27 27 26 29 30 26 26 26 26 26 26 27 28 28 28 28 28 28 28 29 29 29 30 30 30 30 30 29 29 28 28 29 28 28 27 27 27 28 28 27 27 27 27 26 27 26 27 26 25 24 24 25 25 25 26 26 25 25 25 26
39 38 35 34 36 37 35 35 34 33 32 30 29 29 29 29 29 28 27 27 28 27 26 25 25 26 26 26 29 29 25 24 23 24 24 25 26 27 27 28 28 28 28 28 28 29 29 30 30 30 30 30 29 29 29 29 29 28 29 27 27 27 27 28 28 27 28 27 27 27 27 27 26 25 26 27 28 28 26 25 25 25 24 25 25
38 37 37 35 34 36 35 34 34 32 31 29 28 29 29 29 29 28 27 27 27 27 26 25 24 24 27 30 30 31 26 23 24 24 25 26 27 27 28 28 29 29 28 28 29 29 30 29 30 30 30 30 30 30 30 29 29 29 29 28 28 28 28 28 28 28 28 28 28 28 28 27 27 26 26 29 27 27 26 25 25 25 25 25 25
37 37 37 36 35 35 35 34 34 31 31 31 30 29 29 28 28 28 27 27 27 27 26 24 24 27 29 30 31 31 30 29 27 27 26 27 27 27 28 28 28 29 29 29 29 29 29 29 29 30 30 30 30 30 29 29 30 29 30 29 29 28 29 29 29 29 29 28 28 28 28 28 27 26 26 26 26 25 25 26 26 25 25 26 25
37 37 37 35 35 34 34 32 31 30 29 30 29 29 28 28 28 28 27 28 28 28 27 25 25 27 29 31 31 30 30 30 29 29 29 29 29 29 29 29 29 30 30 29 30 30 30 30 29 29 30 30 30 31 30 30 31 30 29 29 29 29 29 29 29 29 29 29 29 29 29 29 28 27 27 27 27 26 27 27 27 27 26 26 26
37 37 37 36 34 32 31 31 30 30 29 29 28 28 28 27 27 27 28 28 29 29 29 28 29 30 31 31 31 31 31 30 30 30 29 29 29 30 30 30 30 30 29 28 28 28 29 29 29 29 29 29 29 30 30 31 31 31 31 31 30 29 29 30 30 30 30 29 29 29 29 28 29 28 28 28 28 27 26 27 27 26 27 27 27
38 37 36 34 33 32 31 30 30 29 29 28 27 27 28 27 27 27 28 28 29 29 29 30 31 31 31 31 31 31 32 32 32 32 31 31 31 31 31 31 31 30 30 29 29 28 28 29 29 28 29 29 30 30 31 31 31 31 31 31 31 31 31 31 31 31 30 30 29 29 29 29 29 28 28 28 28 27 27 28 27 26 26 27 28
39 37 36 35 33 32 32 31 31 30 30 30 29 27 27 27 27 27 28 28 28 29 29 30 30 30 31 31 31 31 31 32 32 32 32 32 32 32 32 32 31 31 30 30 30 29 30 30 30 30 30 31 31 32 31 30 30 30 30 30 30 31 31 30 31 31 30 31 30 29 29 29 29 29 29 29 28 28 28 28 28 28 28 27 27
37 36 35 35 35 34 33 33 33 32 33 31 30 29 28 28 28 28 28 28 29 29 29 30 30 30 30 30 30 30 30 30 31 31 31 31 31 32 32 32 31 31 30 30 30 31 31 31 31 31 31 31 31 31 31 30 30 30 30 29 29 28 28 26 29 29 29 30 30 30 30 29 29 29 29 29 29 28 28 28 28 28 28 28 28
36 36 35 34 34 34 33 33 33 32 33 32 32 31 30 29 29 29 29 29 29 29 29 29 29 30 30 30 29 29 29 29 29 30 30 31 31 31 31 31 30 30 30 30 30 31 31 31 31 31 31 31 31 30 29 30 29 29 28 28 26 25 26 26 27 28 27 30 29 29 30 30 30 30 30 30 29 29 29 29 29 28 28 28 28
37 36 35 34 34 33 33 33 33 33 32 31 31 30 30 30 30 30 30 30 29 29 30 30 29 29 29 29 29 29 29 29 29 29 29 29 29 29 29 30 30 30 30 30 30 31 31 30 30 30 30 30 30 29 29 28 27 26 26 25 24 24 25 25 26 26 27 29 30 30 30 30 30 30 30 30 30 30 30 29 29 29 29 29 29
38 38 38 37 36 35 33 32 32 32 32 31 30 30 30 30 30 30 30 30 30 30 30 29 29 29 29 29 29 29 29 28 28 28 29 29 30 29 29 30 30 30 30 30 30 30 31 30 30 29 29 28 28 28 27 26 25 24 23 23 23 24 24 24 26 25 25 26 30 30 30 30 30 30 30 30 30 30 30 29 30 29 29 29 29